STARLINK-1286, 45417

Orbit data source: Space-Track

STARLINK-1286, 45417 is a payload satellite owned by SpaceX/Seattle (US) in LEO that was launched on Wed, 18 Mar 2020 UTC via an FALCON 9 launch vehicle from the Air Force Eastern Test Range (AFETR). Payload-class satellites include a variety of spacecraft equipped with specific instruments for various scientific and technological missions. These include communications satellites like Starlink; space stations such as the ISS; scientific satellites like the Hubble; Earth observation satellites from companies like Planet Labs, Umbra, and HawkEye 360; GPS; miniature CubeSats for education and research; and military/defense satellites.

Loading next visibility...
Identifier
45417, 2020-019BK
Orbit
LEO
Country
Flag of USUS
Related business
Manufacturer
SpaceX/Seattle
Mission
Partially operational Commercial Communications
Bus & Motor
STARLINK, Unknown motor
Mass
260 kg wet, ~248 kg dry
Launch date (UTC)
2020-03-18 (6 years ago)
Launch vehicle
FALCON 9
Launch site
Air Force Eastern Test Range (AFETR)
Object type
Payload
Rocket body
Debris
Shape & HBR
Box + 1 Pan, 10.1 m
Radar Cross Section
13.562 m², Large (>1 m²)

Expand to show TLE details & history
Last TLE update: 17 hours ago

TLE from 17 hours ago
0 STARLINK-1286
1 45417U 20019BK  26119.57714961  .00043003  00000-0  63225-3 0  9993
2 45417  53.0469 245.4453 0002237 260.7172  99.3585 15.55060236338136
Epoch: 2026-04-29T13:51Z
TLE epoch observation values (Epoch: 2026-04-29T13:51:05.726Z)
Latitude
-0.00002°
Longitude
-179.86469°
Altitude
403.122 km
Speed
7.67 km/s
True Right ascension
16h 21m 46s
True Declination
0° 00' 00"
Sunlit
Object was in full shadow at epoch
Visualization orbit readout
Latitude
Unknown
Longitude
Unknown
Altitude
Unknown
Speed
Unknown
Apparent Right ascension
Unknown
Apparent Declination
Unknown
Sunlit
N/A
Visualization observer readout
Local Sidereal Time
14:31:53
Azimuth
Unknown
Elevation
Unknown
Doppler factor
Unknown
Orbital elements
Apogee altitude
403.772 km
Perigee altitude
400.738 km
Semi-major axis
6,780.392 km
Eccentricity
0.00022
Inclination
53.0469°
RAAN
245.4453°
Arg. of periapsis
260.7172°
True anomaly
99.38379°
Mean anomaly
99.3585°
Eccentric anomaly
99.37115°
Mean motion
3.88742 °/min
Orbital period
92.61 mins
BSTAR
0.00063225
Loading maneuver chart data...
Computing Atmospheric mass density...
Loading historical data...
Loading historical data...
Loading historical data...
Loading historical data...
Loading historical data...
Loading historical data...
Loading historical data...

Documentation

Showing up to 5 results
|